MDT,Max TemperatureF,Mean TemperatureF,Min TemperatureF,Max Dew PointF,MeanDew PointF,Min DewpointF,Max Humidity, Mean Humidity, Min Humidity, Max Sea Level PressureIn, Mean Sea Level PressureIn, Min Sea Level PressureIn, Max VisibilityMiles, Mean VisibilityMiles, Min VisibilityMiles, Max Wind SpeedMPH, Mean Wind SpeedMPH, Max Gust SpeedMPH,PrecipitationIn, CloudCover, Events, WindDirDegrees
2012-7-1,81,69,56,55,51,44,93,65,36,30.08,29.84,29.69,10,8,2,45,12,55,0.57,2,Rain,328
2012-7-2,83,68,52,54,50,45,93,63,33,29.98,29.87,29.76,10,10,10,17,8,22,0.00,0,Rain,179
2012-7-3,92,73,54,55,46,32,67,43,18,29.79,29.64,29.52,10,10,10,26,10,35,T,0,,15
2012-7-4,79,62,44,41,35,30,63,40,17,29.93,29.88,29.84,10,10,10,15,7,20,0.00,0,,307
2012-7-5,67,59,50,51,42,31,72,55,37,30.00,29.96,29.94,10,10,10,16,8,20,0.00,2,,113
2012-7-6,85,66,47,53,46,38,86,53,19,30.23,30.08,29.98,10,10,10,25,4,32,0.01,1,,97
2012-7-7,86,68,49,54,48,42,93,58,23,30.19,30.15,30.12,10,10,10,14,4,16,0.00,0,,120
2012-7-8,90,72,53,52,47,43,71,46,21,30.14,30.11,30.08,10,10,10,20,5,25,0.00,0,,155
2012-7-9,92,73,53,50,42,26,77,44,10,30.12,30.07,30.01,10,10,10,12,4,15,0.00,0,,119
2012-7-10,91,73,54,52,46,42,66,43,19,30.01,29.96,29.88,10,10,10,14,4,17,0.00,0,,158
2012-7-11,89,71,53,51,45,36,71,44,16,29.98,29.95,29.92,10,10,10,14,4,17,0.00,1,,55
2012-7-12,93,74,54,52,46,40,77,48,18,29.98,29.93,29.87,10,10,10,15,8,20,0.00,0,,112
2012-7-13,87,73,59,57,48,41,55,41,26,29.96,29.91,29.88,10,10,10,18,6,24,T,1,Rain,41
2012-7-14,82,74,65,59,56,52,73,57,40,29.95,29.86,29.78,10,10,10,13,5,15,T,5,Rain,336
2012-7-15,85,71,56,58,54,49,90,61,31,29.86,29.76,29.69,10,10,10,28,7,39,T,3,,278
2012-7-16,81,66,51,61,54,48,93,65,36,30.00,29.90,29.85,10,9,2,15,6,21,0.19,2,Rain,287
2012-7-17,83,71,58,60,57,50,93,64,35,29.89,29.83,29.76,10,10,10,13,6,16,0.03,2,,128
2012-7-18,94,74,53,56,46,33,89,51,12,29.86,29.83,29.78,10,10,10,14,6,21,0.00,0,,218
2012-7-19,92,73,54,51,45,40,62,40,17,29.99,29.95,29.86,10,10,10,13,4,14,0.00,0,,120
2012-7-20,84,72,60,61,54,45,78,56,33,30.17,30.03,29.91,10,9,2,37,10,47,0.18,3,Rain,106
2012-7-21,89,72,55,59,55,44,93,61,29,30.05,29.99,29.91,10,10,10,15,5,26,0.00,1,,357
2012-7-22,91,72,52,50,45,40,72,45,17,30.06,29.99,29.92,10,10,10,26,9,36,0.00,1,,115
2012-7-23,94,76,58,54,49,36,72,44,15,29.94,29.86,29.77,10,10,10,35,10,48,T,1,Rain,150
2012-7-24,85,70,54,48,36,26,64,38,12,29.92,29.86,29.78,10,10,10,20,8,29,0.00,0,,278
2012-7-25,79,64,48,48,44,40,71,50,28,30.02,29.96,29.90,10,10,10,18,8,30,0.00,0,,290
2012-7-26,83,66,48,56,50,45,93,62,31,30.20,30.06,29.98,10,9,1,45,5,52,0.41,2,Rain,135
2012-7-27,83,69,55,56,52,46,86,60,33,29.99,29.94,29.88,10,10,10,23,7,31,0.01,1,,157
2012-7-28,93,74,55,50,44,30,72,43,14,29.99,29.93,29.85,10,10,10,30,5,41,0.00,0,,161
2012-7-29,88,72,55,55,47,44,84,53,22,30.10,29.99,29.94,10,10,10,31,6,38,0.01,1,,142
2012-7-30,93,73,53,58,49,43,77,49,20,30.05,29.94,29.84,10,9,2,37,7,44,0.30,1,Rain,115
2012-7-31,86,72,57,48,45,40,64,43,22,29.99,29.93,29.83,10,10,10,14,7,18,0.00,0,,257